Ketchikan, AK

10:49 PM AKDT on September 20, 2018 (GMT -0800)
Ketchikan International

Weather History for PAKT - November, 2017

Change the Weather History Date:

Sunday, November 5, 2017

  Actual Average Record
Temperature  
Mean Temperature 34 °F -  
Max Temperature 44 °F 47 °F 64 °F (1949)
Min Temperature 26 °F 37 °F 19 °F (2003)
Degree Days  
Heating Degree Days 31    
Moisture  
Dew Point 21 °F    
Average Humidity 65    
Maximum Humidity 82    
Minimum Humidity 31    
Precipitation  
Precipitation 0.00 in - - ()
Sea Level Pressure  
Sea Level Pressure 30.20 in    
Wind  
Wind Speed 7 mph (WNW)    
Max Wind Speed 9 mph    
Max Gust Speed -    
Visibility 10 miles    
Events      
Averages and records for this station are not official NWS values.
T = Trace of Precipitation, MM = Missing Value Source: NWS Daily Summary

Daily Weather History Graph

Daily Weather History Graph

Search for Another Location

Airport or City:

Astronomy

Nov. 05, 2017 Rise Set
Actual Time 7:00 AM AKST 3:59 PM AKST
Civil Twilight 6:21 AM AKST 4:38 PM AKST
Nautical Twilight 5:37 AM AKST 5:22 PM AKST
Astronomical Twilight 4:54 AM AKST 6:05 PM AKST
Moon 5:35 PM AKST (11/5) 8:37 AM AKST (11/5)
Length of Visible Light 10h 17m
Length of Day
8h 58m
Waning Gibbous, 96% of the Moon is Illuminated
Nov 5
Waning Gibbous
Nov 10
Last Quarter
Nov 18
New
Nov 26
First Quarter
Dec 3
Full

Hourly Weather History & Observations

Time (AKST) Temp. Windchill Dew Point Humidity Pressure Visibility Wind Dir Wind Speed Gust Speed Precip Events Conditions
12:53 AM 32.0 °F 24.2 °F 27.0 °F 82% 30.21 in 10.0 mi NNW 9.2 mph - N/A   Clear
1:53 AM 32.0 °F 24.8 °F 24.1 °F 73% 30.22 in 10.0 mi NW 8.1 mph - N/A   Clear
1:53 AM 32.0 °F 24.8 °F 25.0 °F 75% 30.23 in 10.0 mi NW 8.1 mph - N/A   Clear
2:53 AM 32.0 °F 24.2 °F 24.1 °F 73% 30.23 in 10.0 mi NW 9.2 mph - N/A   Clear
3:53 AM 30.9 °F 23.5 °F 24.1 °F 76% 30.23 in 10.0 mi WNW 8.1 mph - N/A   Clear
4:53 AM 30.9 °F 22.8 °F 25.0 °F 79% 30.24 in 10.0 mi NNW 9.2 mph - N/A   Clear
5:53 AM 30.9 °F 23.5 °F 25.0 °F 79% 30.24 in 10.0 mi NW 8.1 mph - N/A   Clear
6:08 AM 30.0 °F 24.1 °F 23.0 °F 75% 30.23 in 10.0 mi NW 5.8 mph - N/A   Clear
6:53 AM 26.6 °F - 19.4 °F 74% 30.24 in 10.0 mi Calm Calm - N/A   Clear
7:53 AM 30.2 °F 25.4 °F 23.0 °F 75% 30.24 in 10.0 mi NW 4.6 mph - N/A   Clear
8:53 AM 35.1 °F 29.3 °F 25.0 °F 67% 30.24 in 10.0 mi NW 6.9 mph - N/A   Clear
9:53 AM 37.4 °F 31.4 °F 24.8 °F 60% 30.24 in 10.0 mi NNW 8.1 mph - N/A   Clear
10:53 AM 41.0 °F 38.0 °F 24.8 °F 53% 30.23 in 10.0 mi North 4.6 mph - N/A   Clear
11:53 AM 42.8 °F 38.6 °F 15.8 °F 34% 30.21 in 10.0 mi NNW 6.9 mph - N/A   Clear
12:53 PM 42.8 °F 40.1 °F 14.0 °F 31% 30.19 in 10.0 mi WNW 4.6 mph - N/A   Clear
1:53 PM 42.8 °F 40.1 °F 15.8 °F 34% 30.19 in 10.0 mi WNW 4.6 mph - N/A   Clear
2:53 PM 35.6 °F 32.8 °F 15.8 °F 44% 30.18 in 10.0 mi WSW 3.5 mph - N/A   Clear
3:53 PM 30.2 °F 25.4 °F 17.6 °F 60% 30.17 in 10.0 mi WSW 4.6 mph - N/A   Clear
4:53 PM 30.0 °F 26.5 °F 18.0 °F 61% 30.16 in 10.0 mi WSW 3.5 mph - N/A   Clear
5:53 PM 28.9 °F 25.2 °F 19.0 °F 67% 30.14 in 10.0 mi SW 3.5 mph - N/A   Clear
6:53 PM 27.0 °F - 19.0 °F 72% 30.14 in 10.0 mi Calm Calm - N/A   Clear
7:53 PM 28.0 °F 22.8 °F 21.0 °F 75% 30.14 in 10.0 mi Variable 4.6 mph - N/A   Clear
8:53 PM 32.0 °F 28.7 °F 24.1 °F 73% 30.12 in 10.0 mi SSE 3.5 mph - N/A   Clear
9:53 PM 30.9 °F 26.2 °F 21.0 °F 67% 30.12 in 10.0 mi SSE 4.6 mph - N/A   Clear
10:53 PM 27.0 °F 23.0 °F 21.0 °F 78% 30.10 in 10.0 mi SE 3.5 mph - N/A   Clear